GSAT0233 (GALILEO 33)

Last updated on Sun Apr 12 2026 00:02:39 GMT+0000 (Coordinated Universal Time)

1 67160U 25302A 26100.77050804 .00000056 00000+0 00000+0 0 9991 2 67160 54.2910 104.0503 0002480 238.7455 302.4442 1.70474821 1974
UTC large
Height (km)
Speed (km/s)
/
Latitude / Longitude
Inclination (degrees)
Orbital Period (minutes)
Azimuth
Elevation
Range (km)
Doppler Factor

Next 0 passes for location: London (51.5072 / 0.1276)

Sorry there are no passes over London.
GSAT0233 (GALILEO 33)